Regional Weather Roundup
Issued by NWS Sterling, VA

Home | Current Version | Previous Version | Graphics & Text | Print | Product List | Glossary On
Versions: 1 2 3 4 5 6 7 8 9 10 11 12 13 14 15 16 17 18 19 20 21 22 23 24 25 26 27 28 29 30 31 32 33 34 35 36 37 38 39 40 41 42 43 44 45 46 47 48 49 50
000
ASUS41 KLWX 252211
RWRLWX

REGIONAL WEATHER ROUNDUP
NATIONAL WEATHER SERVICE BALTIMORE MD/WASHINGTON DC
600 PM EDT MON JUL 25 2016

Note: "FAIR" indicates few or no clouds below 12,000 feet
with no significant weather and/or obstructions to visibility.
 TC=TEMPERATURE CELSIUS

 * =Non NWS site. Station does not report precipitation (e.g. rain,
    snow, etc.), thunder, or fog.

DCZ001-MDZ009-015-VAZ040>042-051-053>054-252300-
WASHINGTON METRO

CITY           SKY/WX    TMP DP  RH WIND       PRES   REMARKS
WASHINGTON NAT PTSUNNY   96  69  41 SW18G25   29.86R HX 102
DULLES         TSTM      82  70  66 W21G43    29.89R
ANDREWS AFB    CLOUDY    93  71  49 S12       29.87R HX 100
FT BELVOIR     FAIR      95  72  47 SW8       29.86R HX 102
COLLEGE PARK*  FAIR      95  68  41 S3        29.85S HX  99
LEESBURG*      TSTM      79  75  89 SW15G30   29.90R
MANASSAS*      SUNNY     91  72  52 CALM      29.88R HX  98
GAITHERSBURG*  CLOUDY    93  72  49 S5        29.91S HX 100

$$

MDZ006>007-011-014-252300-
BALTIMORE METRO

CITY           SKY/WX    TMP DP  RH WIND       PRES   REMARKS
BWI AIRPORT    CLOUDY    95  72  47 SW9       29.84R HX 103
MD SCIENCE CTR   N/A     97  72  44 MISG      29.84R HX 105
MARTIN STATE   MOSUNNY   91  82  75 S9        29.84R HX 114
ANNAPOLIS      CLOUDY    94  68  42 VRB7      29.84R HX  98
FORT MEADE*    CLOUDY    88  77  70 SW6       29.87F HX 100

$$

MDZ012-015-019>023-252300-
MARYLAND EASTERN SHORE

CITY           SKY/WX    TMP DP  RH WIND       PRES   REMARKS
OCEAN CITY     SUNNY     89  79  72 SW10      29.88S HX 104
SALISBURY      SUNNY     92  76  59 S13       29.88R HX 104
BAY BRIDGE AP* CLOUDY    93  73  52 S6        29.85R HX 102
CAMBRIDGE*     MOSUNNY   91  73  55 S7        29.86R HX 100
EASTON*        PTSUNNY   93  75  55 SW7       29.89S HX 104

$$

MDZ017>025-252300-
SOUTHERN MARYLAND

CITY           SKY/WX    TMP DP  RH WIND       PRES   REMARKS
PATUXENT RIVER PTSUNNY   97  68  38 SW18      29.86R HX 102
ST INIGOES     MOSUNNY   96  72  45 SW15      29.86S HX 104
LEONARDTOWN*   MOSUNNY   95  68  41 SW10G21   29.89R HX  99

$$

MDZ003>005-252300-
NORTH CENTRAL MARYLAND

CITY           SKY/WX    TMP DP  RH WIND       PRES   REMARKS
FREDERICK*     SUNNY     86  77  74 CALM      29.89F HX  97
HAGERSTOWN APT PTSUNNY   87  71  58 S8        29.87S HX  93

$$

MDZ501>502-252300-
WESTERN MARYLAND

CITY           SKY/WX    TMP DP  RH WIND       PRES   REMARKS
OAKLAND*       MOSUNNY   73  68  83 W5        30.08R
CUMBERLAND*    MOSUNNY   91  68  46 W12       29.93S HX  95

$$

VAZ025>031-252300-
SHENANDOAH VALLEY

CITY           SKY/WX    TMP DP  RH WIND       PRES   REMARKS
WINCHESTER*    FAIR      82  73  74 SE9       29.91F
FRONT ROYAL*   MOCLDY    88  72  58 NE8       29.91S HX  94
LURAY*         FAIR      90  70  51 S5        29.91S HX  95
NEW MARKET*    FAIR     N/A N/A N/A CALM      29.89S
STAUNTON*      FAIR      90  74  60 SW7       29.96R HX  99
WAYNESBORO*    FAIR      90  71  54 SW7       29.97R HX  96

$$

WVZ021-048>050-054>055-252300-
EASTERN WEST VIRGINIA PANHANDLE

CITY           SKY/WX    TMP DP  RH WIND       PRES   REMARKS
MARTINSBURG    FAIR      89  68  49 SW10      29.87F HX  93
PETERSBURG*    LGT RAIN  85  72  64 W8G20     29.93R HX  91

$$

VAZ036>039-050-252300-
CENTRAL FOOTHILLS

CITY           SKY/WX    TMP DP  RH WIND       PRES   REMARKS
CHARLOTTESVILL FAIR      95  74  50 S10       29.89F HX 105
CULPEPER*      FAIR      93  75  55 CALM      29.89R HX 104
ORANGE*          N/A     95  72  46 S7        29.91S HX 103
GORDONSVILLE*  FAIR      95  75  51 SW8       29.88S HX 106
WARRENTON*     FAIR      94  67  41 S3        29.88S HX  98

$$

VAZ055>057-252300-
NORTH AND CENTRAL PIEDMONT

CITY           SKY/WX    TMP DP  RH WIND       PRES   REMARKS
FREDERICKSBRG*   N/A     95  75  52 S7        29.87S HX 107
STAFFORD*      FAIR      93  71  48 SW3       29.92S HX 100

$$

NCZ024-NYZ072-PAZ021-071-VAZ022-071-252300-
OTHER REGIONAL OBSERVATIONS

CITY           SKY/WX    TMP DP  RH WIND       PRES   REMARKS
NEW YORK CITY  RAIN      76  74  93 W3        29.91R FOG
PHILADELPHIA   CLOUDY    96  73  47 SW16      29.83S HX 105
PITTSBURGH     CLOUDY    90  69  50 NW17      29.91F HX  94
ROANOKE        TSTM      81  73  76 NW12      30.02R
RICHMOND       CLOUDY    93  73  52 S10       29.89S HX 102
RALEIGH        CLOUDY    88  73  61 NW6       29.95S HX  95

$$

ANZ530>537-252300-
MARINE OBSERVATIONS

STATION/POSITION TIME  TEMP    WIND        PRES
                       AIR SEA DIR/SP/G
                 (UTC) (F)     (DEG/KT/KT) (MB)
THOMAS PT LIGHT  2200   93 85  230/ 12/ 12 1012.4R
BALT KEY BRIDGE  2142   93                   N/A
COVE POINT       2148   95                   N/A
LEWISETTA        2142   94 89                N/A
SOLOMONS ISLAND  2148   94 86                N/A
PINEY POINT      2124          260/ 10/ 12   N/A

$$




USA.gov is the U.S. government's official web portal to all federal, state and local government web resources and services.